Flag for El Salvador Weather past 2 weeks in San Salvador, El Salvador

Now
84 °F

Passing clouds.


Feels Like: 92 °F
Forecast: N/A
Wind: 5 mph from North

Location: San Salvador / Ilopango

Current Time: Sep 2, 2014 at 4:46:49 PM

Latest Report: Sep 2, 2014 at 3:50 PM


Visibility: N/A

Pressure: 29.89 "Hg

Humidity: 74%

Dew point: 75 °F

Location of San SalvadorLocation

Historic Weather in San Salvador — Graph

°F

San Salvador temperature yesterday

Maximum temperature yesterday: 88 °F (at 2:50 PM)
Minimum temperature yesterday: 68 °F (at 5:50 AM)
Average temperature yesterday: 78 °F

Past Weeks' High & Low Weather Summary

 TemperatureHumidityPressure
High90 °F (Aug 18, 3:50 PM)100% (Aug 18, 8:50 PM)30.07 "Hg (Aug 18, 8:50 PM)
Low66 °F (Aug 24, 5:50 AM)55% (Sep 1, 2:50 PM)29.86 "Hg (Aug 19, 5:50 PM)
Average77 °F83%29.96 "Hg
* Reported Aug 18 3:50 PM — Sep 2 3:50 PM, San Salvador, Weather by CustomWeather, © 2014

Note: Actual official high and low records may vary slightly from our data, if they occured in-between our weather recording intervals... More about our weather records

Advertising

San Salvador weather history for previous 24 hours

 ConditionsComfort  
Time TempWeatherWind HumidityBarometerVisibility
3:50 PM
Sep 2
84 °FPassing clouds.5 mph74%29.89 "HgN/A
2:50 PM86 °FPassing clouds.3 mph66%29.89 "HgN/A
1:50 PM88 °FPassing clouds.5 mph62%29.92 "HgN/A
12:50 PM86 °FPassing clouds.5 mph55%29.95 "HgN/A
11:50 AM86 °FPassing clouds.5 mph70%29.98 "HgN/A
8:50 AM77 °FPassing clouds.6 mph89%29.98 "HgN/A
7:50 AM73 °FSunny.No wind94%30.01 "Hg10 mi
6:50 AM70 °FPassing clouds.2 mph100%30.01 "HgN/A
5:50 AM70 °FPassing clouds.6 mph100%29.89 "HgN/A
11:50 PM
Sep 1
72 °FClear.2 mph100%30.01 "Hg10 mi
10:50 PM73 °FClear.No wind94%N/A10 mi
9:50 PM75 °FClear.No wind83%30.01 "Hg10 mi
8:50 PM75 °FClear.3 mph83%29.98 "Hg10 mi
7:50 PM77 °FClear.2 mph79%29.98 "Hg10 mi
6:50 PM79 °FPassing clouds.No wind74%29.98 "HgN/A
5:50 PM81 °FPassing clouds.7 mph70%29.95 "HgN/A
4:50 PM82 °FPassing clouds.7 mph66%29.95 "HgN/A
Weather by CustomWeather, © 2014

See weather overviewHow to use our weather pages